Wind_Speed
22 23 24 26 27 28 28 29 30 30 31 32 32 33 34 34 35 35 36 36 36 37 37 38 38 38 39 39 39 39 39 39 39 39 40 40 40 40 41 41 41 41 41
24 25 26 28 29 30 30 31 32 33 33 34 34 35 35 35 36 36 37 37 38 38 38 39 39 39 40 40 40 40 41 40 41 41 41 41 42 42 42 42 42 42 42
27 28 29 30 31 32 33 34 34 35 35 36 36 36 37 37 37 38 38 39 39 39 40 40 40 40 41 41 41 41 41 41 41 41 42 42 42 43 43 43 43 43 43
29 30 31 32 34 34 35 35 36 36 37 37 37 38 38 39 39 39 40 40 40 40 40 40 40 40 41 41 41 42 42 42 42 42 42 43 43 43 43 43 44 44 44
32 33 34 35 35 36 37 37 37 38 38 38 39 39 39 40 40 40 41 41 41 41 41 41 40 41 41 41 42 42 42 42 42 43 43 43 43 44 44 44 44 44 44
35 35 36 37 37 38 38 38 39 39 40 40 40 40 40 40 41 41 41 41 41 41 41 41 41 41 41 42 42 42 42 42 42 43 43 43 43 43 43 43 43 44 44
37 38 38 39 39 39 39 39 39 40 40 40 40 41 41 41 41 41 42 41 41 41 42 42 42 42 42 42 42 42 42 42 42 43 43 43 43 43 43 43 43 44 44
39 40 40 39 39 39 39 40 40 40 41 41 41 41 41 41 42 42 42 42 42 42 42 42 42 43 43 42 42 42 43 43 43 43 43 43 43 43 43 43 43 43 44
40 40 40 40 40 40 40 40 41 41 41 41 41 41 41 41 42 42 42 42 42 43 42 42 43 43 42 42 42 43 42 43 43 42 42 42 43 43 43 44 43 43 44
40 40 40 40 40 41 41 41 41 41 41 41 41 41 41 42 42 41 42 42 42 43 43 43 43 42 42 43 43 43 43 43 43 43 43 43 44 44 44 44 44 44 44
41 41 41 41 41 41 41 40 40 40 40 40 41 41 41 42 42 41 41 42 43 43 43 43 43 43 43 43 43 43 43 43 43 43 44 44 44 45 45 45 45 45 46
40 41 41 41 40 40 40 40 40 40 40 41 41 41 42 41 41 41 42 42 43 43 43 43 44 44 44 44 44 44 44 44 44 45 45 46 46 46 47 47 48 48 49
40 40 40 40 40 40 39 39 39 39 40 40 40 41 41 41 41 42 42 43 43 43 43 44 45 45 45 45 45 45 46 46 46 47 47 47 48 49 49 50 50 51 52
40 40 39 39 39 38 38 38 38 39 39 40 40 40 41 41 42 43 44 44 43 43 44 45 45 45 45 46 46 47 47 48 48 48 49 50 51 51 52 53 53 54 55
39 38 38 38 38 38 38 38 38 39 39 39 40 41 41 42 43 44 44 44 44 45 45 45 46 46 47 47 48 48 49 49 50 51 52 53 54 54 55 56 57 58 59
38 37 37 36 36 37 37 37 38 38 39 40 41 41 42 42 43 44 44 45 46 47 47 46 47 48 49 49 50 50 51 52 53 54 55 56 57 58 59 60 62 63 64
36 36 35 35 36 36 36 37 38 38 39 39 40 41 42 43 44 45 46 47 48 48 48 48 49 50 51 52 52 53 54 55 56 57 59 60 61 63 64 65 66 68 69
34 34 34 35 35 35 36 37 38 38 39 40 41 41 42 44 45 46 47 48 49 50 50 50 51 52 53 54 55 56 57 58 60 61 63 64 65 66 68 69 70 71 72
33 33 33 33 34 35 36 37 38 39 39 40 41 42 43 44 45 47 48 49 51 51 52 52 53 54 56 57 58 59 61 62 63 64 65 66 68 69 71 72 73 73 73
32 32 32 32 33 34 35 37 38 39 40 41 41 43 44 45 46 48 49 50 51 52 53 54 56 57 58 60 62 63 63 64 64 66 67 69 70 72 73 73 73 73 73
31 31 31 32 33 34 35 36 37 39 40 41 42 44 45 46 47 49 50 51 53 54 55 57 58 60 62 63 64 65 65 65 66 68 69 71 72 73 73 73 72 71 70
30 31 31 32 33 34 35 36 38 39 40 41 43 44 46 47 48 50 51 53 54 56 58 59 61 63 64 65 66 67 68 69 69 70 71 71 72 72 71 70 69 67 66
30 30 31 32 33 34 35 37 38 40 41 42 43 45 47 48 49 51 52 54 56 58 60 62 63 65 66 67 69 69 70 71 71 72 73 71 71 69 67 66 64 62 60
30 31 32 33 34 35 37 38 39 41 42 43 45 46 47 49 50 52 54 56 58 60 62 64 66 68 69 70 71 72 72 72 72 73 72 70 66 64 62 61 60 57 55
30 31 32 33 35 36 37 38 40 41 42 44 45 47 48 50 52 54 56 58 60 62 64 66 68 69 70 72 72 73 73 73 71 69 67 64 60 58 56 55 54 52 49
31 32 32 34 35 36 37 39 40 41 43 44 46 47 49 51 53 56 58 59 61 63 66 68 69 70 71 72 72 72 72 70 67 63 60 58 56 54 51 49 49 47 45
Wind_Direction
281 284 287 289 290 292 293 294 294 295 296 297 298 299 299 298 298 298 297 297 296 295 295 294 293 293 293 292 291 290 290 289 288 287 286 285 285 284 283 282 282 281 280
282 285 287 289 291 292 293 293 294 294 295 296 297 298 298 298 298 297 297 296 296 296 295 295 294 293 292 292 291 290 290 289 289 288 288 287 286 286 285 284 282 281 280
282 285 287 289 290 291 291 292 293 293 295 295 296 296 297 297 297 297 297 296 296 296 296 295 295 294 293 292 291 290 290 290 289 289 289 288 288 287 286 285 283 282 281
282 285 286 288 290 290 291 292 292 293 294 294 295 296 297 297 296 296 296 296 296 296 296 296 295 294 294 293 292 292 291 291 290 290 289 289 288 287 286 285 284 283 282
282 284 286 287 288 289 290 291 292 292 293 293 294 295 296 296 296 296 296 297 297 297 297 297 296 295 295 294 294 293 292 292 291 291 291 290 289 288 287 287 285 284 282
282 284 285 286 287 288 289 290 291 291 292 292 293 294 295 296 296 296 297 297 297 297 298 297 296 296 296 296 295 294 293 293 292 292 291 291 290 289 288 287 286 285 283
281 282 283 285 286 287 288 289 290 291 291 292 293 294 294 295 296 296 297 297 297 297 298 297 297 297 297 297 296 295 294 294 293 293 292 291 290 290 289 288 287 286 285
280 281 283 285 286 287 288 289 290 291 292 292 293 293 294 295 296 297 297 298 298 298 298 298 297 298 298 298 297 297 296 296 295 294 293 292 292 291 290 289 288 287 286
279 281 283 284 285 286 288 289 290 291 292 292 293 294 294 295 296 297 298 298 298 299 299 299 299 300 299 298 299 298 298 298 297 296 295 294 293 292 291 290 289 288 287
279 280 282 284 285 286 287 288 290 290 291 292 293 294 294 296 297 297 297 298 298 299 300 299 300 300 300 300 299 299 299 298 298 297 296 295 294 293 292 291 290 289 287
277 279 282 283 285 286 287 289 289 290 291 292 293 294 295 296 296 296 297 299 300 300 300 300 301 301 301 300 300 300 299 299 298 297 296 296 295 294 293 292 290 289 288
277 279 281 283 284 285 287 288 289 289 290 291 293 294 295 296 296 297 298 300 301 301 301 301 301 302 301 302 302 301 300 300 299 298 297 296 295 295 294 292 291 290 289
277 278 280 281 283 284 286 288 289 289 290 291 292 293 295 296 296 297 299 300 301 301 302 302 303 303 303 303 302 302 301 300 299 298 298 297 296 295 294 293 292 291 290
275 277 279 281 283 284 286 287 289 289 290 290 291 294 296 296 297 298 299 300 301 301 302 302 303 303 303 303 302 302 301 300 300 299 298 297 296 296 295 294 293 292 291
274 276 279 280 282 284 285 287 288 288 289 290 292 294 295 296 297 298 299 300 301 301 302 303 303 303 303 303 302 302 301 300 299 299 298 297 296 296 295 294 293 292 291
274 276 278 279 281 283 285 286 287 288 289 289 291 293 295 296 297 298 299 300 301 302 303 303 303 303 303 303 302 302 301 300 300 299 298 297 297 296 295 294 293 292 291
274 275 277 279 281 283 284 286 288 289 289 290 291 294 295 296 297 298 299 300 301 302 303 303 303 303 303 303 303 302 301 301 300 299 299 298 297 296 295 295 294 293 292
274 275 277 279 281 283 285 287 288 289 291 292 293 294 295 296 297 298 299 301 302 302 303 303 303 303 303 303 303 302 302 301 300 300 299 298 298 297 297 296 295 294 293
274 275 277 279 281 283 285 288 289 291 292 293 294 294 295 296 297 298 299 301 302 302 303 303 303 303 303 303 303 302 302 301 301 300 300 299 299 299 298 297 296 295 294
273 275 277 279 282 284 286 288 290 292 293 294 295 295 296 297 297 299 300 301 302 302 303 303 304 304 304 303 303 303 302 302 301 301 301 300 300 300 299 298 297 296 296
273 276 278 280 283 286 287 289 290 292 294 294 295 296 296 297 298 300 301 301 302 302 303 303 304 304 304 304 303 303 303 302 302 302 302 302 301 301 300 299 298 298 297
274 276 279 281 284 286 288 289 291 292 294 295 295 296 297 298 299 300 301 302 302 302 303 303 304 304 304 304 304 304 304 303 303 302 302 302 302 301 300 299 299 298 298
275 277 280 282 284 286 288 290 291 293 294 295 296 297 298 299 299 300 301 302 302 303 303 304 305 305 305 305 304 304 304 304 304 303 303 303 302 302 301 300 300 299 299
276 279 281 283 285 287 288 290 291 293 294 295 296 297 298 299 300 301 302 302 303 304 304 305 306 306 306 305 305 305 305 305 305 304 304 304 303 302 302 301 301 300 300
277 280 282 284 286 288 289 291 293 295 295 296 297 298 299 300 301 301 302 303 304 304 305 305 306 306 306 306 306 306 306 306 306 306 305 304 304 304 303 303 302 302 302
279 281 283 285 287 289 291 293 294 295 296 297 298 299 300 301 302 302 303 304 305 305 305 306 306 306 306 306 306 307 307 307 308 307 306 305 305 305 304 303 302 302 303
Height
5833 5832 5832 5830 5829 5828 5827 5825 5824 5822 5820 5818 5816 5814 5812 5810 5807 5805 5802 5800 5798 5795 5793 5790 5788 5786 5783 5781 5779 5776 5774 5772 5770 5768 5766 5765 5763 5762 5760 5759 5757 5756 5755
5827 5827 5826 5825 5824 5822 5821 5819 5817 5816 5814 5812 5809 5807 5805 5803 5800 5798 5795 5793 5790 5788 5785 5783 5780 5778 5775 5773 5770 5768 5766 5763 5761 5759 5757 5756 5754 5752 5751 5749 5748 5747 5745
5822 5821 5820 5819 5817 5816 5814 5812 5811 5809 5807 5805 5803 5800 5798 5795 5793 5791 5788 5786 5783 5780 5778 5775 5772 5770 5767 5764 5762 5759 5757 5754 5752 5750 5748 5746 5744 5742 5741 5739 5738 5736 5735
5815 5814 5813 5812 5811 5809 5807 5805 5804 5802 5800 5798 5795 5793 5791 5788 5785 5783 5780 5778 5775 5772 5770 5767 5764 5761 5758 5756 5753 5750 5748 5745 5743 5741 5738 5736 5734 5732 5730 5729 5727 5726 5725
5808 5807 5806 5805 5804 5802 5800 5798 5796 5794 5792 5790 5788 5785 5783 5780 5778 5775 5772 5770 5767 5764 5761 5758 5756 5753 5750 5747 5744 5741 5738 5736 5733 5731 5729 5726 5724 5722 5720 5718 5717 5715 5714
5801 5800 5799 5798 5796 5794 5792 5790 5788 5786 5784 5782 5780 5778 5775 5772 5770 5767 5764 5761 5759 5756 5753 5750 5747 5744 5741 5738 5735 5732 5729 5726 5724 5721 5719 5716 5714 5712 5710 5708 5706 5704 5703
5793 5792 5791 5790 5788 5786 5785 5783 5781 5779 5776 5774 5772 5770 5767 5764 5761 5759 5756 5753 5750 5747 5744 5741 5738 5735 5732 5729 5726 5723 5719 5717 5714 5711 5708 5706 5703 5701 5699 5697 5695 5693 5692
5785 5784 5783 5782 5780 5778 5777 5775 5773 5770 5768 5766 5764 5762 5759 5757 5753 5750 5748 5745 5742 5739 5736 5732 5729 5726 5723 5719 5716 5713 5710 5706 5703 5701 5698 5695 5693 5690 5688 5686 5684 5682 5680
5777 5776 5775 5773 5772 5770 5768 5766 5765 5762 5760 5758 5756 5754 5751 5748 5745 5742 5739 5736 5733 5730 5727 5723 5720 5717 5713 5710 5707 5703 5700 5696 5693 5690 5688 5685 5682 5680 5677 5675 5673 5671 5669
5768 5767 5766 5765 5763 5762 5760 5758 5756 5754 5752 5750 5747 5745 5742 5739 5737 5734 5731 5728 5724 5721 5718 5714 5711 5708 5704 5700 5697 5693 5690 5687 5683 5680 5677 5674 5671 5668 5666 5663 5661 5659 5657
5760 5759 5757 5756 5755 5753 5751 5750 5748 5746 5744 5741 5739 5736 5733 5731 5728 5725 5723 5719 5716 5712 5708 5705 5702 5698 5694 5691 5687 5683 5680 5676 5673 5670 5666 5663 5660 5657 5654 5652 5649 5647 5645
5751 5750 5749 5748 5746 5745 5743 5741 5739 5737 5735 5733 5730 5728 5725 5722 5720 5717 5714 5711 5707 5703 5699 5695 5692 5688 5684 5681 5677 5673 5669 5666 5662 5659 5655 5652 5648 5645 5642 5639 5636 5634 5631
5742 5741 5740 5739 5738 5736 5735 5733 5731 5729 5727 5724 5722 5719 5717 5714 5711 5708 5705 5702 5698 5694 5690 5686 5682 5678 5674 5670 5666 5663 5659 5655 5651 5647 5643 5640 5636 5633 5629 5626 5623 5619 5617
5734 5733 5732 5731 5729 5728 5726 5725 5723 5721 5719 5716 5714 5711 5708 5705 5702 5699 5696 5692 5689 5686 5682 5677 5672 5668 5664 5660 5656 5652 5647 5643 5639 5635 5631 5627 5623 5619 5615 5612 5608 5604 5601
5725 5724 5723 5722 5721 5720 5718 5717 5715 5713 5711 5708 5705 5703 5700 5697 5693 5690 5686 5683 5680 5676 5673 5668 5663 5658 5653 5649 5645 5640 5636 5631 5627 5622 5618 5613 5609 5605 5600 5596 5592 5588 5584
5716 5715 5715 5714 5713 5711 5710 5708 5707 5705 5703 5700 5697 5694 5691 5688 5684 5680 5677 5673 5669 5666 5662 5658 5652 5647 5642 5637 5633 5628 5623 5619 5614 5609 5603 5598 5594 5589 5584 5579 5575 5570 5566
5708 5707 5706 5706 5705 5703 5702 5700 5699 5696 5694 5691 5689 5686 5682 5679 5675 5671 5667 5663 5659 5655 5651 5647 5641 5636 5631 5626 5620 5615 5610 5605 5599 5593 5588 5582 5576 5571 5566 5560 5555 5550 5545
5699 5699 5698 5698 5697 5695 5694 5692 5690 5688 5686 5683 5680 5677 5673 5670 5666 5662 5657 5653 5648 5644 5639 5635 5630 5624 5618 5613 5607 5602 5596 5590 5583 5577 5571 5564 5558 5552 5546 5540 5534 5529 5523
5691 5691 5690 5689 5688 5687 5686 5684 5682 5680 5677 5674 5671 5668 5664 5660 5656 5652 5647 5642 5637 5632 5627 5622 5617 5611 5606 5599 5593 5587 5581 5574 5567 5559 5553 5546 5539 5532 5525 5518 5512 5506 5500
5683 5683 5682 5681 5680 5679 5677 5675 5673 5671 5668 5665 5662 5658 5654 5650 5646 5642 5637 5631 5626 5621 5615 5610 5604 5598 5591 5584 5578 5571 5565 5558 5550 5542 5535 5527 5519 5512 5504 5497 5490 5484 5477
5675 5675 5674 5673 5672 5671 5669 5667 5664 5662 5659 5656 5652 5648 5644 5640 5636 5631 5626 5620 5614 5609 5602 5596 5590 5584 5577 5569 5562 5554 5548 5541 5534 5525 5517 5509 5499 5492 5483 5475 5468 5461 5455
5667 5667 5666 5665 5664 5662 5661 5658 5656 5653 5650 5646 5643 5638 5634 5630 5625 5619 5614 5608 5602 5596 5589 5583 5576 5569 5561 5553 5545 5537 5530 5523 5517 5509 5499 5491 5480 5472 5463 5455 5448 5441 5435
5659 5659 5658 5657 5656 5654 5652 5649 5647 5644 5640 5637 5633 5628 5624 5619 5613 5608 5602 5596 5589 5582 5575 5568 5561 5553 5545 5536 5528 5521 5512 5503 5496 5487 5478 5473 5462 5453 5444 5436 5429 5422 5417
5651 5651 5650 5649 5647 5645 5643 5640 5637 5634 5631 5627 5622 5618 5613 5608 5602 5597 5591 5584 5576 5569 5561 5554 5546 5537 5527 5518 5509 5501 5493 5485 5478 5467 5457 5451 5444 5435 5427 5418 5410 5405 5400
5643 5643 5641 5640 5638 5636 5634 5631 5628 5624 5621 5616 5612 5607 5602 5597 5591 5585 5579 5572 5564 5555 5546 5538 5529 5520 5510 5501 5491 5482 5474 5465 5459 5450 5439 5432 5426 5419 5413 5404 5395 5389 5385
5635 5634 5633 5631 5629 5627 5624 5622 5618 5615 5611 5606 5601 5596 5591 5585 5578 5571 5564 5557 5550 5541 5533 5523 5514 5504 5494 5484 5474 5464 5455 5446 5438 5432 5424 5416 5410 5403 5400 5393 5384 5377 5372